カタログに戻る

COSMOS 252 DEB

運用中LEO
NORAD 3785·DEBRIS·🇷🇺 Russia

打ち上げ Nov 1, 1968 から Baikonur Cosmodrome

Loading…

次のパス (今後24時間)

TLE

最新Source: Space-Track

元期: Sep 13, 2026, 19:55 UTC

1 03785U 68097AX  26256.83021415  .00000532  00000-0  71478-3 0  9998
2 03785  62.2508  81.0457 0791517  89.6972 279.4589 12.79245340567687

AllMySatでCOSMOS 252 DEBをリアルタイム追跡

Download on the App Store